Fayetteville Regional Grannis Field
KFAY : now visible

Airfield :











YOU CAN JOIN US ON...

 
LOGIN :

Register | Disclaimer

   EN    FR    IT 

 









Legend :    VFR   Marginal VFR   IFR   Intensive IFR   Very Intensive IFR
Visi :
Ceiling :
>= 8 km
>= 3000ft
5 to 8 km
1000 to 3000 ft
1500m to 5 km
500 to 1000 ft
800 to 1500m
200 to 500 ft
< 800m
< 200 ft
Symbols :   Thunderstorms  Fog  Heavy snow  Heavy precipitations  Wind > 20 kt







- Airport Elevation : 189 ft
- IATA code : FAY


KFAY - Fayetteville Regional Grannis Field

CURRENT METAR :
  • 210553Z 22009KT 10SM CLR 28/22 A3001 RMK AO2 SLP153 T02780222 10333 20272 50005

EXPIRED METARs :
  • 210453Z 22008KT 10SM CLR 28/23 A3001 RMK AO2 SLP154 T02780228 403560228
  • 210353Z 22007KT 10SM CLR 27/23 A3000 RMK AO2 SLP152 T02720228

TAF KFAY
Valid from the 21 at 06:00 until the 22 at 06:00 UTC


210520Z 2106/2206 22007KT P6SM FEW250
FM211500 24012G18KT P6SM SCT050
FM220000 22007KT P6SM FEW250
KZDC FIR / North America



MET'MAP, your aeronautical weather chart ! - Copyright ORBIFLY December 2007 - Disclaimer

ORBIFLY MET'MAP TEAM :

Programming & Development : Alexandra Zaïnal
Concept & Development : Baudouin d'Aumeries
Co-Development & Prog : Marc-Olivier Méhu
Technical & hardware support : Manuel Goepfert

Contact : metmap@orbifly.com




SOURCES & CREDITS :

   NOAA       Earth
Advisory